This is the latest recevied weather packets stored in our database for station/object KK7RJD. If no packets are shown the sender has not sent any weather packets the latest 10 day(s).
| Time | Temp. | Humidity | Pressure | Rain* | Wind** | Luminosity | Snow |
|---|---|---|---|---|---|---|---|
| 1778007103 | 7.78° C | 45% | 1015.4 hPa | 0 mm | - | 1033 W/m² | - |
| 1778006800 | 7.22° C | 44% | 1015.4 hPa | 0 mm | - | 1006 W/m² | - |
| 1778006496 | 7.78° C | 43% | 1015.6 hPa | 0 mm | - | 1064 W/m² | - |
| 1778006193 | 7.78° C | 45% | 1015.4 hPa | 0 mm | - | 1031 W/m² | - |
| 1778005891 | 7.78° C | 47% | 1015.7 hPa | 0 mm | - | 963 W/m² | - |
| 1778005587 | 7.22° C | 47% | 1015.6 hPa | 0 mm | - | 969 W/m² | - |
| 1778005284 | 8.33° C | 42% | 1015.6 hPa | 0 mm | - | 447 W/m² | - |
| 1778004981 | 8.33° C | 42% | 1015.4 hPa | 0 mm | - | 984 W/m² | - |
| 1778004678 | 7.78° C | 43% | 1015.6 hPa | 0 mm | - | 971 W/m² | - |
| 1778004374 | 7.78° C | 43% | 1015.6 hPa | 0 mm | - | 965 W/m² | - |
| 1778004072 | 7.78° C | 44% | 1015.7 hPa | 0 mm | - | 919 W/m² | - |
| 1778003767 | 7.78° C | 44% | 1015.6 hPa | 0 mm | - | 826 W/m² | - |
| 1778003464 | 7.78° C | 44% | 1015.8 hPa | 0 mm | - | 982 W/m² | - |
| 1778003161 | 7.22° C | 47% | 1015.7 hPa | 0 mm | - | 745 W/m² | - |
| 1778002856 | 7.22° C | 44% | 1015.7 hPa | 0 mm | - | 333 W/m² | - |
| 1778002553 | 7.78° C | 47% | 1015.8 hPa | 0 mm | - | 888 W/m² | - |
| 1778002250 | 7.78° C | 45% | 1015.6 hPa | 0 mm | - | 894 W/m² | - |
| 1778001948 | 7.78° C | 43% | 1015.7 hPa | 0 mm | - | 916 W/m² | - |
| 1778001644 | 7.22° C | 43% | 1015.8 hPa | 0 mm | - | 913 W/m² | - |
| 1778001339 | 7.22° C | 40% | 1015.8 hPa | 0 mm | - | 861 W/m² | - |
| 1778001036 | 7.22° C | 39% | 1015.7 hPa | 0 mm | - | 869 W/m² | - |
| 1778000733 | 7.78° C | 40% | 1015.8 hPa | 0 mm | - | 889 W/m² | - |
| 1778000430 | 7.22° C | 40% | 1015.8 hPa | 0 mm | - | 837 W/m² | - |
| 1778000125 | 7.22° C | 40% | 1015.7 hPa | 0 mm | - | 369 W/m² | - |
| 1777999820 | 7.22° C | 39% | 1015.7 hPa | 0 mm | - | 828 W/m² | - |
* Rain latest hour (hover to see other rain measurements)
** Current wind speed in m/s (hover to see current wind gust speed)